Location: Marcé
(47.5801°N, 0.3280°W)
Time: 06:17:21
(UTC+01:00)

Altair - Pass Details

Date: 12 December 2021
Orbit: 1501 x 1683 km, 47.2° (Epoch: 21 January)

Event Time Altitude Azimuth Distance (km) Brightness Sun altitude
Rises 19:08:39 0° 286° (WNW) 4,742 11.1 -19.0°
Reaches altitude 10° 19:11:46 10° 284° (WNW) 3,735 10.4 -19.6°
Maximum altitude 19:21:03 68° 204° (SSW) 1,616 7.7 -21.1°
Enters shadow 19:28:16 18° 126° (SE) 3,073 8.7 -22.3°
Drops below altitude 10° 19:30:06 10° 124° (SE) 3,647 - -22.6°
Sets 19:33:06 0° 122° (ESE) 4,626 - -23.1°
